IRIDIUM 91 [P]

Last updated on Feb. 21, 2019, 3:06 a.m. UTC

1 27372U 02005A   19051.60244987  .00078724  82229-7  28488-3 0  9995
2 27372  86.5943  30.5753 0352145 169.0115 191.9099 15.32540604899570

Satellite is not in orbit.